Northeast Philadelphia, PA

11:51 PM EDT on May 29, 2017 (GMT -0400)
Northeast Philadelphia

Weather History for KPNE - April, 2013

Change the Weather History Date:

Monday, April 22, 2013

  Actual Average Record
Temperature  
Mean Temperature 43 °F -  
Max Temperature 53 °F 63 °F 84 °F (2001)
Min Temperature 34 °F 41 °F 34 °F (2013)
Degree Days  
Heating Degree Days 22    
Moisture  
Dew Point 32 °F    
Average Humidity 63    
Maximum Humidity 79    
Minimum Humidity 48    
Precipitation  
Precipitation 0.00 in - - ()
Sea Level Pressure  
Sea Level Pressure 30.57 in    
Wind  
Wind Speed 9 mph (ENE)    
Max Wind Speed 22 mph    
Max Gust Speed 28 mph    
Visibility 10 miles    
Events      
Averages and records for this station are not official NWS values.
T = Trace of Precipitation, MM = Missing Value Source: NWS Daily Summary

Daily Weather History Graph

Daily Weather History Graph

Search for Another Location

Airport or City:

Trip Planner

Search our weather history database for the weather conditions in past years. The results will help you decide how hot, cold, wet, or windy it might be!

Date:

Astronomy

Apr. 22, 2013 Rise Set
Actual Time 6:11 AM EDT 7:46 PM EDT
Civil Twilight 5:43 AM EDT 8:14 PM EDT
Nautical Twilight 5:08 AM EDT 8:49 PM EDT
Astronomical Twilight 4:31 AM EDT 9:26 PM EDT
Moon 4:32 PM EDT (4/22) 4:04 AM EDT (4/22)
Length of Visible Light 14h 31m
Length of Day
13h 34m
Waxing Gibbous, 87% of the Moon is Illuminated
Apr 22
Waxing Gibbous
Apr 25
Full
May 2
Last Quarter
May 9
New
May 18
First Quarter

Hourly Weather History & Observations

Time (EDT) Temp. Windchill Dew Point Humidity Pressure Visibility Wind Dir Wind Speed Gust Speed Precip Events Conditions
12:54 AM 37.0 °F - 27.0 °F 67% 30.63 in 10.0 mi Calm Calm - N/A   Clear
1:54 AM 36.0 °F 32.1 °F 28.0 °F 73% 30.62 in 10.0 mi NE 4.6 mph - N/A   Clear
2:54 AM 35.1 °F 31.0 °F 28.9 °F 78% 30.61 in 10.0 mi NE 4.6 mph - N/A   Clear
3:54 AM 35.1 °F 29.3 °F 28.0 °F 76% 30.62 in 10.0 mi NE 6.9 mph - N/A   Clear
4:54 AM 35.1 °F 31.0 °F 28.0 °F 76% 30.62 in 10.0 mi NE 4.6 mph - N/A   Clear
5:54 AM 34.0 °F 27.2 °F 28.0 °F 79% 30.62 in 10.0 mi NE 8.1 mph - N/A   Clear
6:54 AM 36.0 °F 31.1 °F 30.0 °F 79% 30.62 in 10.0 mi NE 5.8 mph - N/A   Clear
7:54 AM 43.0 °F 37.7 °F 34.0 °F 71% 30.62 in 10.0 mi ENE 9.2 mph - N/A   Clear
8:54 AM 46.0 °F 39.6 °F 32.0 °F 58% 30.64 in 10.0 mi East 15.0 mph - N/A   Clear
9:54 AM 48.9 °F - 30.0 °F 48% 30.62 in 10.0 mi East 15.0 mph 25.3 mph N/A   Partly Cloudy
10:54 AM 50.0 °F - 30.9 °F 48% 30.61 in 10.0 mi East 19.6 mph 25.3 mph N/A   Clear
11:54 AM 52.0 °F - 33.1 °F 49% 30.61 in 10.0 mi East 18.4 mph 25.3 mph N/A   Mostly Cloudy
12:54 PM 50.0 °F - 32.0 °F 50% 30.61 in 10.0 mi ENE 11.5 mph 25.3 mph N/A   Overcast
1:54 PM 51.1 °F - 32.0 °F 48% 30.58 in 10.0 mi East 21.9 mph 27.6 mph N/A   Mostly Cloudy
2:54 PM 51.1 °F - 33.1 °F 50% 30.56 in 10.0 mi ENE 17.3 mph 24.2 mph N/A   Overcast
3:54 PM 50.0 °F - 32.0 °F 50% 30.55 in 10.0 mi East 16.1 mph 23.0 mph N/A   Mostly Cloudy
4:54 PM 50.0 °F - 32.0 °F 50% 30.53 in 10.0 mi East 16.1 mph 24.2 mph N/A   Partly Cloudy
5:54 PM 48.9 °F - 32.0 °F 52% 30.52 in 10.0 mi East 18.4 mph - N/A   Scattered Clouds
6:54 PM 48.0 °F - 32.0 °F 54% 30.51 in 10.0 mi East 12.7 mph - N/A   Scattered Clouds
7:54 PM 46.9 °F - 34.0 °F 61% 30.51 in 10.0 mi East 17.3 mph - N/A   Overcast
8:54 PM 46.0 °F 39.9 °F 36.0 °F 68% 30.51 in 10.0 mi East 13.8 mph 23.0 mph N/A   Overcast
9:02 PM 46.4 °F 40.1 °F 35.6 °F 66% 30.50 in 10.0 mi East 15.0 mph 23.0 mph N/A   Overcast
9:54 PM 46.0 °F 39.9 °F 37.0 °F 71% 30.51 in 10.0 mi ENE 13.8 mph - N/A   Overcast
10:54 PM 45.0 °F 38.2 °F 37.9 °F 76% 30.49 in 10.0 mi East 15.0 mph 20.7 mph N/A   Overcast
11:54 PM 45.0 °F 38.5 °F 37.0 °F 74% 30.47 in 10.0 mi East 13.8 mph 21.9 mph N/A   Overcast